Miscellaneous Local Product
Issued by NWS Hastings, NE

Home | Current Version | Previous Version | Text Only | Print | Product List | Glossary Off
Versions: 1 2 3 4 5 6 7 8 9 10 11 12 13 14 15 16 17 18 19 20 21 22 23 24 25 26 27 28 29 30 31 32 33 34 35 36 37 38 39 40 41 42 43 44 45 46 47 48 49 50

000
AXUS43 KGID 251402
MISGRI

GID CWA HOURLY WEATHER ROUNDUP
NATIONAL WEATHER SERVICE HASTINGS NE
800 AM CST SUN FEB 25 2018

NOTE: "FAIR" INDICATES FEW OR NO CLOUDS BELOW 12,000 FEET WITH NO
SIGNIFICANT WEATHER AND/OR OBSTRUCTIONS TO VISIBILITY.

...SOUTH CENTRAL NEBRASKA...

CITY           SKY/WX    TMP DP  RH WIND       PRES   REMARKS
GRAND ISLAND   CLEAR     23  14  68 W13       29.92R WCI  11
KEARNEY        CLEAR     21  14  74 W8        29.93R WCI  11
HASTINGS       CLEAR     19  13  77 SW7       29.94R WCI  10
ORD            CLEAR     14   9  80 CALM      29.88R
YORK           CLOUDY    19  16  86 W8        29.93R WCI   9
AURORA         PTCLDY    19  14  78 SW9       29.92R WCI   9
LEXINGTON      CLEAR     16  11  82 NW5       29.92R WCI   9
HOLDREGE       CLEAR     23  15  73 W7        29.92S WCI  15
HEBRON         CLOUDY    25  19  78 W6        29.96S WCI  18

...NEBRASKA PANHANDLE...

CITY           SKY/WX    TMP DP  RH WIND       PRES   REMARKS
CHADRON        PTCLDY    -2  -5  87 W7        29.82R WCI -15
ALLIANCE       PTCLDY    14   8  77 CALM      29.80R
SCOTTSBLUFF    MOCLDY    27  13  55 W20       29.83R WCI  13
SIDNEY         CLEAR     15   6  67 NW12      29.85R WCI   2

...WESTERN AND NORTH CENTRAL NEBRASKA...

CITY           SKY/WX    TMP DP  RH WIND       PRES   REMARKS
VALENTINE      PTCLDY    15   7  70 W3        29.82R
AINSWORTH      MOCLDY    17  10  76 W6        29.82R WCI   8
ONEILL         PTCLDY    19  10  68 W9        29.85R WCI   9
BROKEN BOW     CLEAR     20   9  62 W13       29.87R WCI   7
IMPERIAL       CLEAR     18  12  77 W9        29.90R WCI   7
NORTH PLATTE   PTCLDY     9   3  77 CALM      29.90R
MCCOOK         CLEAR     24  19  81 W8        29.93R WCI  15

...EASTERN NEBRASKA...

CITY           SKY/WX    TMP DP  RH WIND       PRES   REMARKS
NORFOLK        CLEAR     21  10  62 W7        29.88R WCI  12
SO SIOUX CITY  CLEAR     21  11  65 W8        29.87R WCI  11
TEKAMAH        CLEAR     21  13  71 SW12      29.90R WCI   9
COLUMBUS       CLEAR     19  14  81 W10       29.93R WCI   7
ALBION         CLEAR     17  10  71 NW3       29.89S
OMAHA EPPLEY   PTCLDY    23  16  74 S7        29.94R WCI  15
OFFUTT AFB     PTCLDY    24  17  76 W5        29.94R WCI  18
MILLARD        CLEAR     24  17  74 CALM      29.94R
LINCOLN        PTCLDY    24  16  71 SW7       29.96R WCI  16
NEBRASKA CITY  CLEAR     26  22  84 W15       29.94R WCI  14
BEATRICE       PTCLDY    23  19  83 CALM      29.96R
FALLS CITY     CLEAR     27  20  75 W5        29.97R WCI  22

...NORTHERN KANSAS...

CITY           SKY/WX    TMP DP  RH WIND       PRES   REMARKS
GOODLAND       CLEAR     19  10  68 SW13      29.92R WCI   6
HILL CITY      CLOUDY    20  13  74 W6        29.97R WCI  12
NORTON         SUNNY     19  12  73 SW9       29.95R WCI   9
PHILLIPSBURG   CLEAR     23  16  74 W6        29.97S WCI  16
BELOIT         MOCLDY    19  16  86 CALM      29.99R
HAYS           CLOUDY    19  15  84 W5        30.00R WCI  12
RUSSELL        CLOUDY    23  17  78 S7        29.98R WCI  15
CONCORDIA      PTCLDY    25  18  74 W6        29.97R WCI  18
SALINA         CLEAR     24  20  84 S8        30.02R WCI  15
TOPEKA         SUNNY     24  22  91 CALM      30.02R



USA.gov is the U.S. government's official web portal to all federal, state and local government web resources and services.